,,,PA_Meas_PMT16A,,PR_Meas_QMR101_102,,RH_Meas_QMH101,,SR_Meas_QMS101,,TA_Meas_QMH101,,GenWind,,GenWind,
date,time,status,PA,status,PR,status,RH,status,SR,status,TA,status,DirAvg,status,SpdAvg,
2012-05-10, 00:00:05,VALID,1011.18,VALID,0,VALID,104,VALID,0.112112,VALID,25.1733,VALID,43,VALID,0.248437,
2012-05-10, 00:01:05,VALID,1011.18,VALID,0,VALID,104,VALID,0.112112,VALID,25.1733,VALID,43,VALID,0.028125,
2012-05-10, 00:02:05,VALID,1011.19,VALID,0,VALID,104,VALID,0,VALID,25.1752,VALID,43,VALID,0,
2012-05-10, 00:03:05,VALID,1011.14,VALID,0,VALID,104,VALID,0.112112,VALID,25.1538,VALID,43,VALID,0,
2012-05-10, 00:04:05,VALID,1011.15,VALID,0,VALID,104,VALID,0.112112,VALID,25.1343,VALID,43,VALID,0.480078,
2012-05-10, 00:05:05,VALID,1011.14,VALID,0,VALID,104,VALID,0.112112,VALID,25.1148,VALID,43,VALID,0.346875,
2012-05-10, 00:06:05,VALID,1011.12,VALID,0,VALID,104,VALID,0.112112,VALID,25.0954,VALID,43,VALID,0.381641,
2012-05-10, 00:07:05,VALID,1011.14,VALID,0,VALID,104,VALID,0.112112,VALID,25.0759,VALID,43,VALID,0.213672,
2012-05-10, 00:08:05,VALID,1011.14,VALID,0,VALID,104,VALID,0,VALID,25.0583,VALID,43,VALID,0.392578,
2012-05-10, 00:09:05,VALID,1011.18,VALID,0,VALID,104,VALID,0,VALID,25.0602,VALID,43,VALID,0.544141,
2012-05-10, 00:10:05,VALID,1011.16,VALID,0,VALID,104,VALID,0,VALID,25.0193,VALID,43,VALID,0.463672,
2012-05-10, 00:11:05,VALID,1011.17,VALID,0,VALID,104,VALID,0,VALID,24.9998,VALID,43,VALID,0.520703,
2012-05-10, 00:12:05,VALID,1011.18,VALID,0,VALID,104,VALID,0,VALID,24.9803,VALID,43,VALID,0.491016,
2012-05-10, 00:13:05,VALID,1011.18,VALID,0,VALID,104,VALID,0,VALID,24.9803,VALID,43,VALID,0.24375,
2012-05-10, 00:14:05,VALID,1011.2,VALID,0,VALID,104,VALID,0,VALID,24.9608,VALID,43,VALID,0,
2012-05-10, 00:15:05,VALID,1011.18,VALID,0,VALID,104,VALID,0,VALID,24.9218,VALID,43,VALID,0,
2012-05-10, 00:16:05,VALID,1011.16,VALID,0,VALID,104,VALID,0,VALID,24.9218,VALID,43,VALID,0,
2012-05-10, 00:17:05,VALID,1011.14,VALID,0,VALID,104,VALID,0,VALID,24.9218,VALID,43,VALID,0,
2012-05-10, 00:18:05,VALID,1011.11,VALID,0,VALID,104,VALID,0,VALID,24.9432,VALID,43,VALID,0,
2012-05-10, 00:19:05,VALID,1011.09,VALID,0,VALID,104,VALID,0,VALID,24.9023,VALID,43,VALID,0,
2012-05-10, 00:20:05,VALID,1011.1,VALID,0,VALID,104,VALID,0,VALID,24.9237,VALID,43,VALID,0,
2012-05-10, 00:21:05,VALID,1011.07,VALID,0,VALID,104,VALID,0,VALID,24.9042,VALID,43,VALID,0,
2012-05-10, 00:22:05,VALID,1011.08,VALID,0,VALID,104,VALID,0,VALID,24.8828,VALID,43,VALID,0,
2012-05-10, 00:23:05,VALID,1011.06,VALID,0,VALID,104,VALID,0,VALID,24.8615,VALID,43,VALID,0,
2012-05-10, 00:24:05,VALID,1011.07,VALID,0,VALID,104,VALID,0,VALID,24.8225,VALID,43,VALID,0,
2012-05-10, 00:25:05,VALID,1011.09,VALID,0,VALID,104,VALID,0,VALID,24.8225,VALID,43,VALID,0,
2012-05-10, 00:26:05,VALID,1011.08,VALID,0,VALID,104,VALID,0.112112,VALID,24.803,VALID,43,VALID,0,
2012-05-10, 00:27:05,VALID,1011.08,VALID,0,VALID,104,VALID,0.112112,VALID,24.7835,VALID,43,VALID,0,
2012-05-10, 00:28:05,VALID,1011.04,VALID,0,VALID,104,VALID,0.112112,VALID,24.7426,VALID,43,VALID,0,
2012-05-10, 00:29:05,VALID,1011.01,VALID,0,VALID,104,VALID,0.112112,VALID,24.725,VALID,43,VALID,0,
2012-05-10, 00:30:05,VALID,1010.99,VALID,0,VALID,104,VALID,0.112112,VALID,24.7269,VALID,43,VALID,0,
2012-05-10, 00:31:05,VALID,1010.98,VALID,0,VALID,104,VALID,0,VALID,24.6666,VALID,43,VALID,0,
2012-05-10, 00:32:05,VALID,1010.93,VALID,0,VALID,104,VALID,0.112112,VALID,24.6257,VALID,43,VALID,0,
2012-05-10, 00:33:05,VALID,1010.93,VALID,0,VALID,104,VALID,0.112112,VALID,24.6471,VALID,43,VALID,0,
2012-05-10, 00:34:04,VALID,1010.92,VALID,0,VALID,104,VALID,0.112112,VALID,24.6081,VALID,43,VALID,0,
2012-05-10, 00:35:04,VALID,1010.89,VALID,0,VALID,104,VALID,0.112112,VALID,24.6062,VALID,43,VALID,0.390234,
2012-05-10, 00:36:04,VALID,1010.85,VALID,0,VALID,104,VALID,0.112112,VALID,24.6471,VALID,43,VALID,0.259375,
2012-05-10, 00:37:04,VALID,1010.86,VALID,0,VALID,104,VALID,0,VALID,24.6276,VALID,43,VALID,0.478906,
2012-05-10, 00:38:04,VALID,1010.85,VALID,0,VALID,104,VALID,0,VALID,24.6489,VALID,43,VALID,0.365625,
2012-05-10, 00:39:04,VALID,1010.81,VALID,0,VALID,104,VALID,0,VALID,24.6294,VALID,43,VALID,0.192969,
2012-05-10, 00:40:04,VALID,1010.78,VALID,0,VALID,104,VALID,0,VALID,24.6099,VALID,43,VALID,0.245703,
2012-05-10, 00:41:04,VALID,1010.79,VALID,0,VALID,104,VALID,0,VALID,24.5905,VALID,43,VALID,0.242578,
2012-05-10, 00:42:04,VALID,1010.76,VALID,0,VALID,104,VALID,0,VALID,24.571,VALID,43,VALID,0.234766,
2012-05-10, 00:43:04,VALID,1010.75,VALID,0,VALID,104,VALID,0,VALID,24.571,VALID,43,VALID,0.432422,
2012-05-10, 00:44:04,VALID,1010.76,VALID,0,VALID,104,VALID,0,VALID,24.5905,VALID,43,VALID,0.375781,
2012-05-10, 00:45:04,VALID,1010.71,VALID,0,VALID,104,VALID,0,VALID,24.571,VALID,43,VALID,0.4375,
2012-05-10, 00:46:04,VALID,1010.72,VALID,0,VALID,104,VALID,0,VALID,24.571,VALID,43,VALID,0.442969,
2012-05-10, 00:47:04,VALID,1010.71,VALID,0,VALID,104,VALID,0,VALID,24.6099,VALID,43,VALID,0.466797,
2012-05-10, 00:48:04,VALID,1010.71,VALID,0,VALID,104,VALID,0,VALID,24.6294,VALID,43,VALID,0.528125,
2012-05-10, 00:49:04,VALID,1010.67,VALID,0,VALID,104,VALID,0,VALID,24.5886,VALID,43,VALID,0.136719,
2012-05-10, 00:50:04,VALID,1010.67,VALID,0,VALID,104,VALID,0,VALID,24.6099,VALID,43,VALID,0.0230469,
2012-05-10, 00:51:04,VALID,1010.66,VALID,0,VALID,104,VALID,0,VALID,24.6099,VALID,43,VALID,0.0214844,
2012-05-10, 00:52:04,VALID,1010.64,VALID,0,VALID,104,VALID,0,VALID,24.5905,VALID,43,VALID,0.357812,
2012-05-10, 00:53:04,VALID,1010.62,VALID,0,VALID,104,VALID,0,VALID,24.571,VALID,43,VALID,0.359766,
2012-05-10, 00:54:04,VALID,1010.62,VALID,0,VALID,104,VALID,0,VALID,24.571,VALID,43,VALID,0.591406,
2012-05-10, 00:55:04,VALID,1010.58,VALID,0,VALID,104,VALID,0,VALID,24.5905,VALID,43,VALID,0.672656,
2012-05-10, 00:56:04,VALID,1010.54,VALID,0,VALID,104,VALID,0,VALID,24.6099,VALID,43,VALID,0.499609,
2012-05-10, 00:57:04,VALID,1010.52,VALID,0,VALID,104,VALID,0,VALID,24.5691,VALID,43,VALID,0.353125,
2012-05-10, 00:58:04,VALID,1010.45,VALID,0,VALID,104,VALID,0,VALID,24.571,VALID,43,VALID,0.347656,
2012-05-10, 00:59:04,VALID,1010.46,VALID,0,VALID,104,VALID,0,VALID,24.5496,VALID,43,VALID,0.0378906,
2012-05-10, 01:00:04,VALID,1010.45,VALID,0,VALID,104,VALID,0,VALID,24.5515,VALID,43,VALID,0.116406,
2012-05-10, 01:01:04,VALID,1010.45,VALID,0,VALID,104,VALID,0,VALID,24.5515,VALID,43,VALID,0.186328,
2012-05-10, 01:02:04,VALID,1010.42,VALID,0,VALID,104,VALID,0,VALID,24.5515,VALID,43,VALID,0,
2012-05-10, 01:03:04,VALID,1010.42,VALID,0,VALID,104,VALID,0,VALID,24.532,VALID,43,VALID,0,
2012-05-10, 01:04:04,VALID,1010.39,VALID,0,VALID,104,VALID,0,VALID,24.5125,VALID,43,VALID,0,
2012-05-10, 01:05:04,VALID,1010.38,VALID,0,VALID,104,VALID,0,VALID,24.4735,VALID,43,VALID,0,
2012-05-10, 01:06:04,VALID,1010.37,VALID,0,VALID,104,VALID,0,VALID,24.4735,VALID,43,VALID,0.1875,
2012-05-10, 01:07:04,VALID,1010.33,VALID,0,VALID,104,VALID,0,VALID,24.454,VALID,43,VALID,0.119141,
2012-05-10, 01:08:04,VALID,1010.31,VALID,0,VALID,104,VALID,0,VALID,24.4345,VALID,47,VALID,0.730859,
2012-05-10, 01:09:04,VALID,1010.28,VALID,0,VALID,104,VALID,0,VALID,24.4345,VALID,54,VALID,0.540625,
2012-05-10, 01:10:04,VALID,1010.26,VALID,0,VALID,104,VALID,0,VALID,24.454,VALID,54,VALID,0.70625,
2012-05-10, 01:11:04,VALID,1010.25,VALID,0,VALID,104,VALID,0,VALID,24.454,VALID,54,VALID,0.595703,
2012-05-10, 01:12:04,VALID,1010.26,VALID,0,VALID,104,VALID,0,VALID,24.454,VALID,54,VALID,0.152734,
2012-05-10, 01:13:04,VALID,1010.28,VALID,0,VALID,104,VALID,0,VALID,24.4754,VALID,54,VALID,0.285156,
2012-05-10, 01:14:04,VALID,1010.25,VALID,0,VALID,104,VALID,0,VALID,24.454,VALID,54,VALID,0.422656,
2012-05-10, 01:15:04,VALID,1010.23,VALID,0,VALID,104,VALID,0,VALID,24.4735,VALID,54,VALID,0.215234,
2012-05-10, 01:16:04,VALID,1010.22,VALID,0,VALID,104,VALID,0,VALID,24.493,VALID,54,VALID,0.553125,
2012-05-10, 01:17:04,VALID,1010.18,VALID,0,VALID,104,VALID,0,VALID,24.493,VALID,54,VALID,0.306641,
2012-05-10, 01:18:04,VALID,1010.16,VALID,0,VALID,104,VALID,0,VALID,24.4735,VALID,54,VALID,0.186328,
2012-05-10, 01:19:04,VALID,1010.16,VALID,0,VALID,104,VALID,0,VALID,24.454,VALID,54,VALID,0.255469,
2012-05-10, 01:20:04,VALID,1010.17,VALID,0,VALID,104,VALID,0,VALID,24.454,VALID,54,VALID,0.357812,
2012-05-10, 01:21:04,VALID,1010.16,VALID,0,VALID,104,VALID,0,VALID,24.4735,VALID,54,VALID,0.136719,
2012-05-10, 01:22:04,VALID,1010.18,VALID,0,VALID,104,VALID,0,VALID,24.4735,VALID,62,VALID,0.728125,
2012-05-10, 01:23:04,VALID,1010.15,VALID,0,VALID,104,VALID,0,VALID,24.493,VALID,62,VALID,0.084375,
2012-05-10, 01:24:04,VALID,1010.16,VALID,0,VALID,104,VALID,0,VALID,24.493,VALID,62,VALID,0.290234,
2012-05-10, 01:25:04,VALID,1010.14,VALID,0,VALID,104,VALID,0,VALID,24.5125,VALID,62,VALID,0.0394531,
2012-05-10, 01:26:04,VALID,1010.15,VALID,0,VALID,104,VALID,0,VALID,24.4911,VALID,62,VALID,0,
2012-05-10, 01:27:04,VALID,1010.12,VALID,0,VALID,104,VALID,0,VALID,24.5106,VALID,62,VALID,0,
2012-05-10, 01:28:04,VALID,1010.14,VALID,0,VALID,104,VALID,0,VALID,24.532,VALID,62,VALID,0,
2012-05-10, 01:29:04,VALID,1010.11,VALID,0,VALID,104,VALID,0,VALID,24.532,VALID,62,VALID,0,
2012-05-10, 01:30:04,VALID,1010.1,VALID,0,VALID,104,VALID,0,VALID,24.532,VALID,62,VALID,0,
2012-05-10, 01:31:04,VALID,1010.09,VALID,0,VALID,104,VALID,0,VALID,24.5515,VALID,62,VALID,0.0328125,
2012-05-10, 01:32:04,VALID,1010.1,VALID,0,VALID,104,VALID,0.112112,VALID,24.5515,VALID,62,VALID,0.350781,
2012-05-10, 01:33:04,VALID,1010.13,VALID,0,VALID,104,VALID,0.112112,VALID,24.5515,VALID,62,VALID,0.192578,
2012-05-10, 01:34:04,VALID,1010.15,VALID,0,VALID,104,VALID,0.112112,VALID,24.5106,VALID,67,VALID,0.55,
2012-05-10, 01:35:04,VALID,1010.13,VALID,0,VALID,104,VALID,0.112112,VALID,24.532,VALID,117,VALID,0.604688,
2012-05-10, 01:36:04,VALID,1010.13,VALID,0,VALID,104,VALID,0,VALID,24.5496,VALID,106,VALID,0.263281,
2012-05-10, 01:37:04,VALID,1010.17,VALID,0,VALID,104,VALID,0,VALID,24.571,VALID,106,VALID,0.00117188,
2012-05-10, 01:38:04,VALID,1010.14,VALID,0,VALID,104,VALID,0,VALID,24.5905,VALID,106,VALID,0.311719,
2012-05-10, 01:39:04,VALID,1010.1,VALID,0,VALID,104,VALID,0,VALID,24.5905,VALID,104,VALID,0.186719,
2012-05-10, 01:40:04,VALID,1010.08,VALID,0,VALID,104,VALID,0,VALID,24.5886,VALID,104,VALID,0.263281,
2012-05-10, 01:41:04,VALID,1010.04,VALID,0,VALID,104,VALID,0,VALID,24.5691,VALID,96,VALID,0.448438,
2012-05-10, 01:42:04,VALID,1010.04,VALID,0,VALID,104,VALID,0.112112,VALID,24.5886,VALID,40,VALID,0.762109,
2012-05-10, 01:43:04,VALID,1010.05,VALID,0,VALID,104,VALID,0,VALID,24.5886,VALID,56,VALID,0.478906,
2012-05-10, 01:44:04,VALID,1010.03,VALID,0,VALID,104,VALID,0.112112,VALID,24.5886,VALID,56,VALID,0.0183594,
2012-05-10, 01:45:04,VALID,1010.03,VALID,0,VALID,104,VALID,0.112112,VALID,24.5886,VALID,56,VALID,0,
2012-05-10, 01:46:04,VALID,1010.03,VALID,0,VALID,104,VALID,0,VALID,24.5691,VALID,56,VALID,0.247656,
2012-05-10, 01:47:04,VALID,1010.03,VALID,0,VALID,104,VALID,0,VALID,24.6099,VALID,56,VALID,0.405469,
2012-05-10, 01:48:04,VALID,1010.03,VALID,0,VALID,104,VALID,0,VALID,24.5905,VALID,56,VALID,0.046875,
2012-05-10, 01:49:04,VALID,1010.03,VALID,0,VALID,104,VALID,0,VALID,24.5905,VALID,56,VALID,0.279297,
2012-05-10, 01:50:04,VALID,1010.05,VALID,0,VALID,104,VALID,0.112112,VALID,24.571,VALID,56,VALID,0.265625,
2012-05-10, 01:51:04,VALID,1010.03,VALID,0,VALID,104,VALID,0,VALID,24.571,VALID,56,VALID,0.130078,
2012-05-10, 01:52:04,VALID,1010.02,VALID,0,VALID,104,VALID,0,VALID,24.5301,VALID,56,VALID,0.0796875,
2012-05-10, 01:53:04,VALID,1010.04,VALID,0,VALID,104,VALID,0,VALID,24.532,VALID,56,VALID,0,
2012-05-10, 01:54:04,VALID,1010.03,VALID,0,VALID,104,VALID,0,VALID,24.532,VALID,56,VALID,0.00390625,
2012-05-10, 01:55:04,VALID,1010.05,VALID,0,VALID,104,VALID,0.112112,VALID,24.5106,VALID,56,VALID,0,
2012-05-10, 01:56:04,VALID,1010.02,VALID,0,VALID,104,VALID,0,VALID,24.5125,VALID,56,VALID,0.177734,
2012-05-10, 01:57:04,VALID,1010.04,VALID,0,VALID,104,VALID,0,VALID,24.5125,VALID,56,VALID,0,
2012-05-10, 01:58:04,VALID,1010,VALID,0,VALID,104,VALID,0,VALID,24.4735,VALID,56,VALID,0.139062,
2012-05-10, 01:59:04,VALID,1010.02,VALID,0,VALID,104,VALID,0,VALID,24.4735,VALID,56,VALID,0.539844,
2012-05-10, 02:00:04,VALID,1010,VALID,0,VALID,104,VALID,0,VALID,24.4735,VALID,56,VALID,0.459375,
2012-05-10, 02:01:04,VALID,1010,VALID,0,VALID,104,VALID,0,VALID,24.4735,VALID,56,VALID,0.506641,
2012-05-10, 02:02:04,VALID,1009.98,VALID,0,VALID,104,VALID,0,VALID,24.4735,VALID,56,VALID,0.283984,
2012-05-10, 02:03:04,VALID,1009.96,VALID,0,VALID,104,VALID,0,VALID,24.4735,VALID,54,VALID,0.406641,
2012-05-10, 02:04:04,VALID,1009.96,VALID,0,VALID,104,VALID,0,VALID,24.454,VALID,51,VALID,0.436719,
2012-05-10, 02:05:04,VALID,1009.98,VALID,0,VALID,104,VALID,0,VALID,24.4345,VALID,51,VALID,0.196875,
2012-05-10, 02:06:04,VALID,1009.98,VALID,0,VALID,104,VALID,0,VALID,24.415,VALID,51,VALID,0.316797,
2012-05-10, 02:07:04,VALID,1009.96,VALID,0,VALID,104,VALID,0.112112,VALID,24.3742,VALID,51,VALID,0.1125,
2012-05-10, 02:08:04,VALID,1009.96,VALID,0,VALID,104,VALID,0.112112,VALID,24.3956,VALID,51,VALID,0,
2012-05-10, 02:09:04,VALID,1009.95,VALID,0,VALID,104,VALID,0,VALID,24.3547,VALID,51,VALID,0,
2012-05-10, 02:10:04,VALID,1009.98,VALID,0,VALID,104,VALID,0,VALID,24.3371,VALID,51,VALID,0,
2012-05-10, 02:11:04,VALID,1010,VALID,0,VALID,104,VALID,0.112112,VALID,24.2963,VALID,51,VALID,0,
2012-05-10, 02:12:04,VALID,1009.99,VALID,0,VALID,104,VALID,0,VALID,24.2981,VALID,51,VALID,0,
2012-05-10, 02:13:04,VALID,1010,VALID,0,VALID,104,VALID,0,VALID,24.2981,VALID,51,VALID,0,
2012-05-10, 02:14:04,VALID,1010,VALID,0,VALID,104,VALID,0,VALID,24.2786,VALID,51,VALID,0,
2012-05-10, 02:15:04,VALID,1009.98,VALID,0,VALID,104,VALID,0,VALID,24.2573,VALID,51,VALID,0,
2012-05-10, 02:16:04,VALID,1009.99,VALID,0,VALID,104,VALID,0,VALID,24.2786,VALID,51,VALID,0.172266,
2012-05-10, 02:17:04,VALID,1010,VALID,0,VALID,104,VALID,0,VALID,24.2573,VALID,51,VALID,0,
2012-05-10, 02:18:04,VALID,1009.94,VALID,0,VALID,104,VALID,0.112112,VALID,24.2378,VALID,51,VALID,0,
2012-05-10, 02:19:04,VALID,1009.93,VALID,0,VALID,104,VALID,0,VALID,24.2591,VALID,51,VALID,0,
2012-05-10, 02:20:04,VALID,1009.95,VALID,0,VALID,104,VALID,0,VALID,24.2396,VALID,51,VALID,0,
2012-05-10, 02:21:04,VALID,1009.95,VALID,0,VALID,104,VALID,0,VALID,24.2183,VALID,51,VALID,0,
2012-05-10, 02:22:04,VALID,1009.93,VALID,0,VALID,104,VALID,0,VALID,24.2202,VALID,51,VALID,0,
2012-05-10, 02:23:04,VALID,1009.94,VALID,0,VALID,104,VALID,0.112112,VALID,24.2202,VALID,51,VALID,0,
2012-05-10, 02:24:04,VALID,1009.94,VALID,0,VALID,104,VALID,0.112112,VALID,24.2007,VALID,51,VALID,0,
2012-05-10, 02:25:04,VALID,1009.95,VALID,0,VALID,104,VALID,0,VALID,24.2007,VALID,51,VALID,0,
2012-05-10, 02:26:04,VALID,1009.96,VALID,0,VALID,104,VALID,0.112112,VALID,24.1812,VALID,51,VALID,0,
2012-05-10, 02:27:04,VALID,1010,VALID,0,VALID,104,VALID,0.112112,VALID,24.1599,VALID,51,VALID,0,
2012-05-10, 02:28:04,VALID,1009.98,VALID,0,VALID,104,VALID,0.112112,VALID,24.1812,VALID,51,VALID,0.152734,
2012-05-10, 02:29:04,VALID,1009.99,VALID,0,VALID,104,VALID,0.112112,VALID,24.1617,VALID,51,VALID,0,
2012-05-10, 02:30:04,VALID,1009.99,VALID,0,VALID,104,VALID,0,VALID,24.1617,VALID,51,VALID,0,
2012-05-10, 02:31:04,VALID,1009.99,VALID,0,VALID,104,VALID,0,VALID,24.1812,VALID,51,VALID,0,
2012-05-10, 02:32:04,VALID,1009.98,VALID,0,VALID,104,VALID,0,VALID,24.1617,VALID,51,VALID,0,
2012-05-10, 02:33:04,VALID,1010,VALID,0,VALID,104,VALID,0,VALID,24.1617,VALID,51,VALID,0,
2012-05-10, 02:34:04,VALID,1010.01,VALID,0,VALID,104,VALID,0,VALID,24.1422,VALID,51,VALID,0,
2012-05-10, 02:35:04,VALID,1010.04,VALID,0,VALID,104,VALID,0,VALID,24.1209,VALID,51,VALID,0,
2012-05-10, 02:36:04,VALID,1010.04,VALID,0,VALID,104,VALID,0.112112,VALID,24.1617,VALID,51,VALID,0.421484,
2012-05-10, 02:37:04,VALID,1010.07,VALID,0,VALID,104,VALID,0.112112,VALID,24.1404,VALID,51,VALID,0.332031,
2012-05-10, 02:38:04,VALID,1010.1,VALID,0,VALID,104,VALID,0,VALID,24.1617,VALID,47,VALID,0.534766,
2012-05-10, 02:39:04,VALID,1010.1,VALID,0,VALID,104,VALID,0,VALID,24.1617,VALID,33,VALID,0.465625,
2012-05-10, 02:40:04,VALID,1010.1,VALID,0,VALID,104,VALID,0,VALID,24.1617,VALID,33,VALID,0.3375,
2012-05-10, 02:41:04,VALID,1010.1,VALID,0,VALID,104,VALID,0,VALID,24.1617,VALID,33,VALID,0.325781,
2012-05-10, 02:42:04,VALID,1010.11,VALID,0,VALID,104,VALID,0,VALID,24.1422,VALID,33,VALID,0.415625,
2012-05-10, 02:43:04,VALID,1010.1,VALID,0,VALID,104,VALID,0,VALID,24.1422,VALID,33,VALID,0.383984,
2012-05-10, 02:44:04,VALID,1010.08,VALID,0,VALID,104,VALID,0,VALID,24.1227,VALID,33,VALID,0.142578,
2012-05-10, 02:45:04,VALID,1010.09,VALID,0,VALID,104,VALID,0,VALID,24.0819,VALID,33,VALID,0,
2012-05-10, 02:46:04,VALID,1010.08,VALID,0,VALID,104,VALID,0,VALID,24.0643,VALID,33,VALID,0,
2012-05-10, 02:47:04,VALID,1010.06,VALID,0,VALID,104,VALID,0,VALID,24.0253,VALID,33,VALID,0,
2012-05-10, 02:48:04,VALID,1010.11,VALID,0,VALID,104,VALID,0,VALID,24.0058,VALID,33,VALID,0,
2012-05-10, 02:49:04,VALID,1010.07,VALID,0,VALID,104,VALID,0,VALID,23.9668,VALID,33,VALID,0,
2012-05-10, 02:50:04,VALID,1010.05,VALID,0,VALID,104,VALID,0,VALID,23.9455,VALID,33,VALID,0.308203,
2012-05-10, 02:51:04,VALID,1010.03,VALID,0,VALID,104,VALID,0,VALID,23.9668,VALID,33,VALID,0.380469,
2012-05-10, 02:52:04,VALID,1010.02,VALID,0,VALID,104,VALID,0,VALID,23.9863,VALID,33,VALID,0.207031,
2012-05-10, 02:53:04,VALID,1010.03,VALID,0,VALID,104,VALID,0.112112,VALID,23.9668,VALID,33,VALID,0.391016,
2012-05-10, 02:54:04,VALID,1010.06,VALID,0,VALID,104,VALID,0,VALID,23.9863,VALID,33,VALID,0.0425781,
2012-05-10, 02:55:04,VALID,1010.1,VALID,0,VALID,104,VALID,0,VALID,24.0058,VALID,33,VALID,0.0921875,
2012-05-10, 02:56:04,VALID,1010.13,VALID,0,VALID,104,VALID,0,VALID,23.9845,VALID,33,VALID,0,
2012-05-10, 02:57:04,VALID,1010.16,VALID,0,VALID,104,VALID,0,VALID,23.9845,VALID,33,VALID,0,
2012-05-10, 02:58:04,VALID,1010.19,VALID,0,VALID,104,VALID,0,VALID,24.0253,VALID,33,VALID,0,
2012-05-10, 02:59:04,VALID,1010.21,VALID,0,VALID,104,VALID,0,VALID,24.0253,VALID,33,VALID,0,
2012-05-10, 03:00:04,VALID,1010.24,VALID,0,VALID,104,VALID,0,VALID,24.0448,VALID,33,VALID,0,
2012-05-10, 03:01:04,VALID,1010.22,VALID,0,VALID,104,VALID,0,VALID,24.0253,VALID,33,VALID,0.153906,
2012-05-10, 03:02:04,VALID,1010.24,VALID,0,VALID,104,VALID,0,VALID,24.0448,VALID,33,VALID,0.16875,
2012-05-10, 03:03:04,VALID,1010.27,VALID,0,VALID,104,VALID,0,VALID,24.0448,VALID,33,VALID,0.125391,
2012-05-10, 03:04:04,VALID,1010.31,VALID,0,VALID,104,VALID,0.112112,VALID,24.0448,VALID,33,VALID,0,
2012-05-10, 03:05:04,VALID,1010.34,VALID,0,VALID,104,VALID,0.112112,VALID,24.0837,VALID,33,VALID,0,
2012-05-10, 03:06:04,VALID,1010.39,VALID,0,VALID,104,VALID,0.112112,VALID,24.0819,VALID,33,VALID,0,
2012-05-10, 03:07:04,VALID,1010.38,VALID,0,VALID,104,VALID,0,VALID,24.1617,VALID,33,VALID,0,
2012-05-10, 03:08:04,VALID,1010.39,VALID,0,VALID,104,VALID,0.112112,VALID,24.1617,VALID,33,VALID,0,
2012-05-10, 03:09:04,VALID,1010.35,VALID,0,VALID,104,VALID,0,VALID,24.1617,VALID,33,VALID,0,
2012-05-10, 03:10:04,VALID,1010.32,VALID,0,VALID,104,VALID,0,VALID,24.1617,VALID,33,VALID,0,
2012-05-10, 03:11:04,VALID,1010.29,VALID,0,VALID,104,VALID,0.112112,VALID,24.1422,VALID,33,VALID,0.387109,
2012-05-10, 03:12:04,VALID,1010.23,VALID,0,VALID,104,VALID,0,VALID,24.1032,VALID,33,VALID,0.559375,
2012-05-10, 03:13:04,VALID,1010.2,VALID,0,VALID,104,VALID,0,VALID,24.0837,VALID,33,VALID,0.618359,
2012-05-10, 03:14:04,VALID,1010.2,VALID,0,VALID,104,VALID,0,VALID,24.0643,VALID,33,VALID,0.313281,
2012-05-10, 03:15:04,VALID,1010.19,VALID,0,VALID,104,VALID,0,VALID,24.0643,VALID,33,VALID,0.409766,
2012-05-10, 03:16:04,VALID,1010.2,VALID,0,VALID,104,VALID,0,VALID,24.1032,VALID,33,VALID,0.433203,
2012-05-10, 03:17:04,VALID,1010.22,VALID,0,VALID,104,VALID,0,VALID,24.1422,VALID,33,VALID,0.0488281,
2012-05-10, 03:18:04,VALID,1010.25,VALID,0,VALID,104,VALID,0,VALID,24.1422,VALID,33,VALID,0.309375,
2012-05-10, 03:19:04,VALID,1010.28,VALID,0,VALID,104,VALID,0,VALID,24.1617,VALID,33,VALID,0.106641,
2012-05-10, 03:20:04,VALID,1010.25,VALID,0,VALID,104,VALID,0.112112,VALID,24.1812,VALID,33,VALID,0,
2012-05-10, 03:21:04,VALID,1010.25,VALID,0,VALID,104,VALID,0.112112,VALID,24.1812,VALID,33,VALID,0,
2012-05-10, 03:22:04,VALID,1010.2,VALID,0,VALID,104,VALID,0,VALID,24.1404,VALID,33,VALID,0,
2012-05-10, 03:23:04,VALID,1010.16,VALID,0,VALID,104,VALID,0,VALID,24.1812,VALID,33,VALID,0.0308594,
2012-05-10, 03:24:04,VALID,1010.12,VALID,0,VALID,104,VALID,0,VALID,24.2007,VALID,33,VALID,0.159766,
2012-05-10, 03:25:04,VALID,1010.11,VALID,0,VALID,104,VALID,0,VALID,24.2202,VALID,33,VALID,0.49375,
2012-05-10, 03:26:04,VALID,1010.11,VALID,0,VALID,104,VALID,0,VALID,24.1988,VALID,33,VALID,0.588281,
2012-05-10, 03:27:04,VALID,1010.14,VALID,0,VALID,104,VALID,0,VALID,24.2202,VALID,33,VALID,0.31875,
2012-05-10, 03:28:04,VALID,1010.12,VALID,0,VALID,104,VALID,0,VALID,24.2007,VALID,33,VALID,0.136328,
2012-05-10, 03:29:04,VALID,1010.18,VALID,0,VALID,104,VALID,0,VALID,24.2202,VALID,33,VALID,0.169531,
2012-05-10, 03:30:04,VALID,1010.17,VALID,0,VALID,104,VALID,0,VALID,24.2007,VALID,33,VALID,0.166797,
2012-05-10, 03:31:04,VALID,1010.21,VALID,0,VALID,104,VALID,0,VALID,24.1599,VALID,33,VALID,0,
2012-05-10, 03:32:04,VALID,1010.22,VALID,0,VALID,104,VALID,0,VALID,24.2007,VALID,33,VALID,0.0046875,
2012-05-10, 03:33:04,VALID,1010.2,VALID,0,VALID,104,VALID,0,VALID,24.2007,VALID,33,VALID,0.0984375,
2012-05-10, 03:34:04,VALID,1010.23,VALID,0,VALID,104,VALID,0,VALID,24.2007,VALID,33,VALID,0,
2012-05-10, 03:35:04,VALID,1010.2,VALID,0,VALID,104,VALID,0,VALID,24.2007,VALID,33,VALID,0,
2012-05-10, 03:36:04,VALID,1010.24,VALID,0,VALID,104,VALID,0,VALID,24.1793,VALID,33,VALID,0.172656,
2012-05-10, 03:37:04,VALID,1010.23,VALID,0,VALID,104,VALID,0,VALID,24.2183,VALID,33,VALID,0.122266,
2012-05-10, 03:38:04,VALID,1010.28,VALID,0,VALID,104,VALID,0,VALID,24.2396,VALID,33,VALID,0,
2012-05-10, 03:39:04,VALID,1010.29,VALID,0,VALID,104,VALID,0,VALID,24.2591,VALID,33,VALID,0.21875,
2012-05-10, 03:40:04,VALID,1010.29,VALID,0,VALID,104,VALID,0,VALID,24.2591,VALID,33,VALID,0.253516,
2012-05-10, 03:41:04,VALID,1010.31,VALID,0,VALID,104,VALID,0,VALID,24.2591,VALID,33,VALID,0.287891,
2012-05-10, 03:42:04,VALID,1010.28,VALID,0,VALID,104,VALID,0,VALID,24.2805,VALID,33,VALID,0.147656,
2012-05-10, 03:43:04,VALID,1010.3,VALID,0,VALID,104,VALID,0,VALID,24.2591,VALID,33,VALID,0.253125,
2012-05-10, 03:44:04,VALID,1010.31,VALID,0,VALID,104,VALID,0,VALID,24.2591,VALID,33,VALID,0.402344,
2012-05-10, 03:45:04,VALID,1010.32,VALID,0,VALID,104,VALID,0,VALID,24.2786,VALID,33,VALID,0.369141,
2012-05-10, 03:46:04,VALID,1010.35,VALID,0,VALID,104,VALID,0,VALID,24.2786,VALID,33,VALID,0.233594,
2012-05-10, 03:47:04,VALID,1010.38,VALID,0,VALID,104,VALID,0,VALID,24.2786,VALID,33,VALID,0.365625,
2012-05-10, 03:48:04,VALID,1010.37,VALID,0,VALID,104,VALID,0,VALID,24.2981,VALID,33,VALID,0.660156,
2012-05-10, 03:49:04,VALID,1010.41,VALID,0,VALID,104,VALID,0,VALID,24.3371,VALID,70,VALID,0.380078,
2012-05-10, 03:50:04,VALID,1010.37,VALID,0,VALID,104,VALID,0,VALID,24.3371,VALID,70,VALID,0.426172,
2012-05-10, 03:51:04,VALID,1010.38,VALID,0,VALID,104,VALID,0,VALID,24.3371,VALID,70,VALID,0.392188,
2012-05-10, 03:52:04,VALID,1010.37,VALID,0,VALID,104,VALID,0,VALID,24.3566,VALID,70,VALID,0.227344,
2012-05-10, 03:53:04,VALID,1010.39,VALID,0,VALID,104,VALID,0,VALID,24.3547,VALID,70,VALID,0.378125,
2012-05-10, 03:54:04,VALID,1010.4,VALID,0,VALID,104,VALID,0,VALID,24.3761,VALID,70,VALID,0.483984,
2012-05-10, 03:55:04,VALID,1010.39,VALID,0,VALID,104,VALID,0,VALID,24.3956,VALID,70,VALID,0.503906,
2012-05-10, 03:56:04,VALID,1010.41,VALID,0,VALID,104,VALID,0,VALID,24.3956,VALID,70,VALID,0.312109,
2012-05-10, 03:57:04,VALID,1010.39,VALID,0,VALID,104,VALID,0,VALID,24.4364,VALID,70,VALID,0.171094,
2012-05-10, 03:58:04,VALID,1010.4,VALID,0,VALID,104,VALID,0,VALID,24.4345,VALID,66,VALID,0.603516,